Flag for Canada Weather past 2 weeks in Edmundston, New Brunswick, Canada

Now
43 °F

Quite cool.


Feels Like: 43 °F
Forecast: 47 / 76 °F
Wind: 1 mph from South

Location: St Leonard

Current Time: May 4, 2015 at 7:10:49 AM

Latest Report: May 4, 2015 at 6:00 AM


Visibility: N/A

Pressure: 30.06 "Hg

Humidity: 85%

Dew point: 39 °F

Location of EdmundstonLocation

Historic Weather in Edmundston — Graph

°F

Edmundston temperature yesterday

Maximum temperature yesterday: 69 °F (at 6:00 PM)
Minimum temperature yesterday: 31 °F (at 5:00 AM)
Average temperature yesterday: 52 °F

Past Weeks' High & Low Weather Summary

 TemperatureHumidityPressure
High69 °F (May 3, 6:00 PM)100% (Apr 21, 8:00 AM)30.34 "Hg (Apr 21, 8:00 AM)
Low24 °F (Apr 20, 5:00 AM)20% (May 3, 3:00 PM)29.50 "Hg (Apr 23, 2:00 PM)
Average41 °F75%29.82 "Hg
* Reported Apr 19 5:00 AM — May 4 5:00 AM, Edmundston, Weather by CustomWeather, © 2015

Note: Actual official high and low records may vary slightly from our data, if they occured in-between our weather recording intervals... More about our weather records

Advertising

Edmundston weather history for previous 24 hours

 ConditionsComfort  
Time TempWeatherWind HumidityBarometerVisibility
5:00 AM
Mon, May 4
46 °FCool.3 mph82%30.05 "HgN/A
4:00 AM47 °FCool.2 mph76%30.05 "HgN/A
3:00 AM49 °FCool.3 mph70%30.05 "HgN/A
2:00 AM49 °FCool.5 mph57%30.05 "HgN/A
1:00 AM51 °FCool.5 mph53%30.04 "HgN/A
12:00 AM52 °FCool.3 mph43%30.04 "HgN/A
11:00 PM
Sun, May 3
55 °FRefreshingly cool.2 mph38%30.05 "HgN/A
10:00 PM57 °FRefreshingly cool.3 mph36%30.04 "HgN/A
9:00 PM59 °FRefreshingly cool.2 mph35%30.02 "HgN/A
8:00 PM65 °FMild.2 mph29%30.01 "HgN/A
7:00 PM68 °FMild.3 mph25%30.01 "HgN/A
6:00 PM69 °FMild.1 mph22%30.01 "HgN/A
5:00 PM68 °FMild.2 mph22%30.02 "HgN/A
4:00 PM67 °FMild.1 mph21%30.02 "HgN/A
3:00 PM65 °FMild.3 mph20%30.03 "HgN/A
2:00 PM64 °FMild.2 mph28%30.04 "HgN/A
1:00 PM62 °FRefreshingly cool.2 mph35%30.04 "HgN/A
12:00 PM60 °FRefreshingly cool.1 mph35%30.04 "HgN/A
11:00 AM56 °FRefreshingly cool.No wind41%30.06 "HgN/A
10:00 AM52 °FCool.1 mph49%30.06 "HgN/A
9:00 AM44 °FQuite cool.No wind67%30.05 "HgN/A
8:00 AM39 °FChilly.No wind70%30.04 "HgN/A
7:00 AM33 °FChilly.2 mph81%30.02 "HgN/A
Weather by CustomWeather, © 2015

See weather overviewHow to use our weather pages